Starlink 33566

operational
NORAD ID: 62100 Int'l Des: 2024-220 Owner: SPXS Country: US Constellation: starlink
LEOCIRCULAR

About Starlink 33566

Description loading...

Live Position

Loading 3D Globe...

Upcoming Passes

Altitude History

Altitude vs Time

uPlot chart will show altitude changes over time

Two-Line Element Set

1 62100U 24220N 25304.70019191 .00020333 00000-0 74694-3 0 9995
2 62100 43.0026 199.3012 0000153 198.8685 161.2161 15.27554425 53630
Epoch: Oct 31, 2025 • Age: 21 hours

Current Status

Altitude 483.1 km
Velocity 7.63 km/s
Sub-Earth Point 26.82°N, 93.49°E
Launch Date Nov 25, 2024
Age 0.9 years
Type internet

Technical Details

Classification Payload
Mass 530.00 kg
Dry Mass 500.00 kg
Total Mass 530.00 kg
Length 0.30 m
Diameter 4.10 m
Span 29.00 m
Shape Box + pan
Manufacturer SPXS
Bus Type Starlink V2MO
Phase Status In Orbit
Owner/State SPXS/US

Large Constellations

Loading constellations...